Year,Month,Day,Hour,Minute,Value (Times are PST for barometer in hPa)
2014,11,21,00,00,1011.28
2014,11,21,00,01,1011.28
2014,11,21,00,02,1011.28
2014,11,21,00,03,1011.28
2014,11,21,00,04,1011.28
2014,11,21,00,05,1011.28
2014,11,21,00,06,1011.24
2014,11,21,00,07,1011.24
2014,11,21,00,08,1011.24
2014,11,21,00,09,1011.24
2014,11,21,00,10,1011.18
2014,11,21,00,11,1011.11
2014,11,21,00,12,1011.07
2014,11,21,00,13,1011.11
2014,11,21,00,14,1011.07
2014,11,21,00,15,1011.07
2014,11,21,00,16,1011.07
2014,11,21,00,17,1011.11
2014,11,21,00,18,1011.14
2014,11,21,00,19,1011.11
2014,11,21,00,20,1011.14
2014,11,21,00,21,1011.14
2014,11,21,00,22,1011.14
2014,11,21,00,23,1011.14
2014,11,21,00,24,1011.07
2014,11,21,00,25,1011.04
2014,11,21,00,26,1011.01
2014,11,21,00,27,1011.01
2014,11,21,00,28,1011.07
2014,11,21,00,29,1011.11
2014,11,21,00,30,1011.04
2014,11,21,00,31,1010.97
2014,11,21,00,32,1010.97
2014,11,21,00,33,1010.94
2014,11,21,00,34,1010.91
2014,11,21,00,35,1010.91
2014,11,21,00,36,1010.87
2014,11,21,00,37,1010.84
2014,11,21,00,38,1010.80
2014,11,21,00,39,1010.80
2014,11,21,00,40,1010.80
2014,11,21,00,41,1010.84
2014,11,21,00,42,1010.84
2014,11,21,00,43,1010.87
2014,11,21,00,44,1010.84
2014,11,21,00,45,1010.84
2014,11,21,00,46,1010.77
2014,11,21,00,47,1010.70
2014,11,21,00,48,1010.74
2014,11,21,00,49,1010.67
2014,11,21,00,50,1010.60
2014,11,21,00,51,1010.57
2014,11,21,00,52,1010.57
2014,11,21,00,53,1010.57
2014,11,21,00,54,1010.57
2014,11,21,00,55,1010.63
2014,11,21,00,56,1010.63
2014,11,21,00,57,1010.60
2014,11,21,00,58,1010.60
2014,11,21,00,59,1010.60
2014,11,21,01,00,1010.57
2014,11,21,01,01,1010.57
2014,11,21,01,02,1010.57
2014,11,21,01,03,1010.53
2014,11,21,01,04,1010.57
2014,11,21,01,05,1010.57
2014,11,21,01,06,1010.57
2014,11,21,01,07,1010.53
2014,11,21,01,08,1010.57
2014,11,21,01,09,1010.57
2014,11,21,01,10,1010.57
2014,11,21,01,11,1010.57
2014,11,21,01,12,1010.57
2014,11,21,01,13,1010.60
2014,11,21,01,14,1010.67
2014,11,21,01,15,1010.63
2014,11,21,01,16,1010.60
2014,11,21,01,17,1010.63
2014,11,21,01,18,1010.63
2014,11,21,01,19,1010.63
2014,11,21,01,20,1010.67
2014,11,21,01,21,1010.63
2014,11,21,01,22,1010.67
2014,11,21,01,23,1010.73
2014,11,21,01,24,1010.70
2014,11,21,01,25,1010.70
2014,11,21,01,26,1010.70
2014,11,21,01,27,1010.70
2014,11,21,01,28,1010.67
2014,11,21,01,29,1010.63
2014,11,21,01,30,1010.60
2014,11,21,01,31,1010.50
2014,11,21,01,32,1010.43
2014,11,21,01,33,1010.43
2014,11,21,01,34,1010.46
2014,11,21,01,35,1010.36
2014,11,21,01,36,1010.40
2014,11,21,01,37,1010.36
2014,11,21,01,38,1010.33
2014,11,21,01,39,1010.30
2014,11,21,01,40,1010.26
2014,11,21,01,41,1010.23
2014,11,21,01,42,1010.19
2014,11,21,01,43,1010.16
2014,11,21,01,44,1010.19
2014,11,21,01,45,1010.13
2014,11,21,01,46,1010.13
2014,11,21,01,47,1010.19
2014,11,21,01,48,1010.19
2014,11,21,01,49,1010.30
2014,11,21,01,50,1010.40
2014,11,21,01,51,1010.40
2014,11,21,01,52,1010.46
2014,11,21,01,53,1010.40
2014,11,21,01,54,1010.36
2014,11,21,01,55,1010.33
2014,11,21,01,56,1010.30
2014,11,21,01,57,1010.26
2014,11,21,01,58,1010.26
2014,11,21,01,59,1010.19
2014,11,21,02,00,1010.23
2014,11,21,02,01,1010.16
2014,11,21,02,02,1010.19
2014,11,21,02,03,1010.16
2014,11,21,02,04,1010.16
2014,11,21,02,05,1010.13
2014,11,21,02,06,1010.16
2014,11,21,02,07,1010.16
2014,11,21,02,08,1010.19
2014,11,21,02,09,1010.26
2014,11,21,02,10,1010.26
2014,11,21,02,11,1010.33
2014,11,21,02,12,1010.33
2014,11,21,02,13,1010.40
2014,11,21,02,14,1010.33
2014,11,21,02,15,1010.33
2014,11,21,02,16,1010.33
2014,11,21,02,17,1010.30
2014,11,21,02,18,1010.30
2014,11,21,02,19,1010.30
2014,11,21,02,20,1010.30
2014,11,21,02,21,1010.30
2014,11,21,02,22,1010.33
2014,11,21,02,23,1010.33
2014,11,21,02,24,1010.40
2014,11,21,02,25,1010.36
2014,11,21,02,26,1010.36
2014,11,21,02,27,1010.30
2014,11,21,02,28,1010.33
2014,11,21,02,29,1010.30
2014,11,21,02,30,1010.30
2014,11,21,02,31,1010.33
2014,11,21,02,32,1010.26
2014,11,21,02,33,1010.30
2014,11,21,02,34,1010.26
2014,11,21,02,35,1010.26
2014,11,21,02,36,1010.26
2014,11,21,02,37,1010.23
2014,11,21,02,38,1010.19
2014,11,21,02,39,1010.16
2014,11,21,02,40,1010.16
2014,11,21,02,41,1010.09
2014,11,21,02,42,1010.02
2014,11,21,02,43,1009.96
2014,11,21,02,44,1009.86
2014,11,21,02,45,1009.86
2014,11,21,02,46,1009.72
2014,11,21,02,47,1009.69
2014,11,21,02,48,1009.65
2014,11,21,02,49,1009.62
2014,11,21,02,50,1009.62
2014,11,21,02,51,1009.65
2014,11,21,02,52,1009.69
2014,11,21,02,53,1009.75
2014,11,21,02,54,1009.75
2014,11,21,02,55,1009.82
2014,11,21,02,56,1009.86
2014,11,21,02,57,1009.86
2014,11,21,02,58,1009.89
2014,11,21,02,59,1009.89
2014,11,21,03,00,1009.92
2014,11,21,03,01,1009.92
2014,11,21,03,02,1009.89
2014,11,21,03,03,1009.92
2014,11,21,03,04,1009.89
2014,11,21,03,05,1009.92
2014,11,21,03,06,1009.92
2014,11,21,03,07,1009.96
2014,11,21,03,08,1009.92
2014,11,21,03,09,1009.96
2014,11,21,03,10,1009.92
2014,11,21,03,11,1009.86
2014,11,21,03,12,1009.79
2014,11,21,03,13,1009.72
2014,11,21,03,14,1009.69
2014,11,21,03,15,1009.65
2014,11,21,03,16,1009.58
2014,11,21,03,17,1009.62
2014,11,21,03,18,1009.58
2014,11,21,03,19,1009.55
2014,11,21,03,20,1009.58
2014,11,21,03,21,1009.55
2014,11,21,03,22,1009.55
2014,11,21,03,23,1009.55
2014,11,21,03,24,1009.55
2014,11,21,03,25,1009.55
2014,11,21,03,26,1009.55
2014,11,21,03,27,1009.48
2014,11,21,03,28,1009.52
2014,11,21,03,29,1009.52
2014,11,21,03,30,1009.48
2014,11,21,03,31,1009.42
2014,11,21,03,32,1009.38
2014,11,21,03,33,1009.38
2014,11,21,03,34,1009.35
2014,11,21,03,35,1009.35
2014,11,21,03,36,1009.25
2014,11,21,03,37,1009.28
2014,11,21,03,38,1009.18
2014,11,21,03,39,1009.14
2014,11,21,03,40,1009.11
2014,11,21,03,41,1009.01
2014,11,21,03,42,1008.97
2014,11,21,03,43,1008.94
2014,11,21,03,44,1008.87
2014,11,21,03,45,1008.87
2014,11,21,03,46,1008.84
2014,11,21,03,47,1008.87
2014,11,21,03,48,1008.84
2014,11,21,03,49,1008.74
2014,11,21,03,50,1008.77
2014,11,21,03,51,1008.74
2014,11,21,03,52,1008.74
2014,11,21,03,53,1008.74
2014,11,21,03,54,1008.70
2014,11,21,03,55,1008.64
2014,11,21,03,56,1008.67
2014,11,21,03,57,1008.60
2014,11,21,03,58,1008.57
2014,11,21,03,59,1008.57
2014,11,21,04,00,1008.57
2014,11,21,04,01,1008.50
2014,11,21,04,02,1008.53
2014,11,21,04,03,1008.50
2014,11,21,04,04,1008.50
2014,11,21,04,05,1008.53
2014,11,21,04,06,1008.53
2014,11,21,04,07,1008.57
2014,11,21,04,08,1008.57
2014,11,21,04,09,1008.50
2014,11,21,04,10,1008.50
2014,11,21,04,11,1008.47
2014,11,21,04,12,1008.43
2014,11,21,04,13,1008.43
2014,11,21,04,14,1008.43
2014,11,21,04,15,1008.40
2014,11,21,04,16,1008.47
2014,11,21,04,17,1008.47
2014,11,21,04,18,1008.43
2014,11,21,04,19,1008.43
2014,11,21,04,20,1008.47
2014,11,21,04,21,1008.43
2014,11,21,04,22,1008.47
2014,11,21,04,23,1008.47
2014,11,21,04,24,1008.47
2014,11,21,04,25,1008.50
2014,11,21,04,26,1008.50
2014,11,21,04,27,1008.47
2014,11,21,04,28,1008.50
2014,11,21,04,29,1008.38
2014,11,21,04,30,1008.40
2014,11,21,04,31,1008.40
2014,11,21,04,32,1008.37
2014,11,21,04,33,1008.33
2014,11,21,04,34,1008.30
2014,11,21,04,35,1008.26
2014,11,21,04,36,1008.26
2014,11,21,04,37,1008.26
2014,11,21,04,38,1008.26
2014,11,21,04,39,1008.30
2014,11,21,04,40,1008.30
2014,11,21,04,41,1008.30
2014,11,21,04,42,1008.33
2014,11,21,04,43,1008.33
2014,11,21,04,44,1008.33
2014,11,21,04,45,1008.33
2014,11,21,04,46,1008.37
2014,11,21,04,47,1008.33
2014,11,21,04,48,1008.33
2014,11,21,04,49,1008.30
2014,11,21,04,50,1008.23
2014,11,21,04,51,1008.20
2014,11,21,04,52,1008.09
2014,11,21,04,53,1008.06
2014,11,21,04,54,1007.99
2014,11,21,04,55,1007.93
2014,11,21,04,56,1007.89
2014,11,21,04,57,1007.86
2014,11,21,04,58,1007.86
2014,11,21,04,59,1007.79
2014,11,21,05,00,1007.82
2014,11,21,05,01,1007.63
2014,11,21,05,02,1007.62
2014,11,21,05,03,1007.62
2014,11,21,05,04,1007.65
2014,11,21,05,05,1007.62
2014,11,21,05,06,1007.62
2014,11,21,05,07,1007.55
2014,11,21,05,08,1007.48
2014,11,21,05,09,1007.38
2014,11,21,05,10,1007.38
2014,11,21,05,11,1007.32
2014,11,21,05,12,1007.28
2014,11,21,05,13,1007.21
2014,11,21,05,14,1007.15
2014,11,21,05,15,1007.15
2014,11,21,05,16,1007.18
2014,11,21,05,17,1007.11
2014,11,21,05,18,1007.08
2014,11,21,05,19,1007.08
2014,11,21,05,20,1007.11
2014,11,21,05,21,1007.18
2014,11,21,05,22,1007.11
2014,11,21,05,23,1007.18
2014,11,21,05,24,1007.21
2014,11,21,05,25,1007.28
2014,11,21,05,26,1007.28
2014,11,21,05,27,1007.21
2014,11,21,05,28,1007.15
2014,11,21,05,29,1007.15
2014,11,21,05,30,1007.11
2014,11,21,05,31,1007.11
2014,11,21,05,32,1007.11
2014,11,21,05,33,1007.08
2014,11,21,05,34,1007.11
2014,11,21,05,35,1007.11
2014,11,21,05,36,1007.11
2014,11,21,05,37,1007.15
2014,11,21,05,38,1007.11
2014,11,21,05,39,1007.08
2014,11,21,05,40,1007.01
2014,11,21,05,41,1007.01
2014,11,21,05,42,1006.98
2014,11,21,05,43,1006.88
2014,11,21,05,44,1006.84
2014,11,21,05,45,1006.77
2014,11,21,05,46,1006.74
2014,11,21,05,47,1006.71
2014,11,21,05,48,1006.67
2014,11,21,05,49,1006.71
2014,11,21,05,50,1006.71
2014,11,21,05,51,1006.74
2014,11,21,05,52,1006.71
2014,11,21,05,53,1006.74
2014,11,21,05,54,1006.71
2014,11,21,05,55,1006.67
2014,11,21,05,56,1006.74
2014,11,21,05,57,1006.77
2014,11,21,05,58,1006.74
2014,11,21,05,59,1006.81
2014,11,21,06,00,1006.74
2014,11,21,06,01,1006.81
2014,11,21,06,02,1006.74
2014,11,21,06,03,1006.77
2014,11,21,06,04,1006.71
2014,11,21,06,05,1006.71
2014,11,21,06,06,1006.64
2014,11,21,06,07,1006.67
2014,11,21,06,08,1006.71
2014,11,21,06,09,1006.71
2014,11,21,06,10,1006.71
2014,11,21,06,11,1006.67
2014,11,21,06,12,1006.60
2014,11,21,06,13,1006.57
2014,11,21,06,14,1006.57
2014,11,21,06,15,1006.54
2014,11,21,06,16,1006.44
2014,11,21,06,17,1006.40
2014,11,21,06,18,1006.40
2014,11,21,06,19,1006.40
2014,11,21,06,20,1006.40
2014,11,21,06,21,1006.40
2014,11,21,06,22,1006.37
2014,11,21,06,23,1006.30
2014,11,21,06,24,1006.23
2014,11,21,06,25,1006.16
2014,11,21,06,26,1006.13
2014,11,21,06,27,1006.03
2014,11,21,06,28,1005.96
2014,11,21,06,29,1005.93
2014,11,21,06,30,1005.83
2014,11,21,06,31,1005.76
2014,11,21,06,32,1005.72
2014,11,21,06,33,1005.72
2014,11,21,06,34,1005.66
2014,11,21,06,35,1005.66
2014,11,21,06,36,1005.55
2014,11,21,06,37,1005.52
2014,11,21,06,38,1005.45
2014,11,21,06,39,1005.39
2014,11,21,06,40,1005.25
2014,11,21,06,41,1005.15
2014,11,21,06,42,1005.08
2014,11,21,06,43,1005.05
2014,11,21,06,44,1005.08
2014,11,21,06,45,1005.11
2014,11,21,06,46,1005.15
2014,11,21,06,47,1005.15
2014,11,21,06,48,1005.25
2014,11,21,06,49,1005.28
2014,11,21,06,50,1005.28
2014,11,21,06,51,1005.35
2014,11,21,06,52,1005.35
2014,11,21,06,53,1005.39
2014,11,21,06,54,1005.42
2014,11,21,06,55,1005.45
2014,11,21,06,56,1005.35
2014,11,21,06,57,1005.32
2014,11,21,06,58,1005.32
2014,11,21,06,59,1005.35
2014,11,21,07,00,1005.35
2014,11,21,07,01,1005.39
2014,11,21,07,02,1005.32
2014,11,21,07,03,1005.32
2014,11,21,07,04,1005.28
2014,11,21,07,05,1005.25
2014,11,21,07,06,1005.28
2014,11,21,07,07,1005.28
2014,11,21,07,08,1005.32
2014,11,21,07,09,1005.32
2014,11,21,07,10,1005.35
2014,11,21,07,11,1005.39
2014,11,21,07,12,1005.45
2014,11,21,07,13,1005.42
2014,11,21,07,14,1005.39
2014,11,21,07,15,1005.32
2014,11,21,07,16,1005.28
2014,11,21,07,17,1005.25
2014,11,21,07,18,1005.25
2014,11,21,07,19,1005.25
2014,11,21,07,20,1005.25
2014,11,21,07,21,1005.32
2014,11,21,07,22,1005.32
2014,11,21,07,23,1005.32
2014,11,21,07,24,1005.35
2014,11,21,07,25,1005.32
2014,11,21,07,26,1005.28
2014,11,21,07,27,1005.15
2014,11,21,07,28,1005.15
2014,11,21,07,29,1005.11
2014,11,21,07,30,1005.11
2014,11,21,07,31,1005.15
2014,11,21,07,32,1005.15
2014,11,21,07,33,1005.15
2014,11,21,07,34,1005.18
2014,11,21,07,35,1005.22
2014,11,21,07,36,1005.11
2014,11,21,07,37,1005.18
2014,11,21,07,38,1005.05
2014,11,21,07,39,1004.95
2014,11,21,07,40,1004.95
2014,11,21,07,41,1004.98
2014,11,21,07,42,1004.88
2014,11,21,07,43,1004.95
2014,11,21,07,44,1004.78
2014,11,21,07,45,1004.71
2014,11,21,07,46,1004.71
2014,11,21,07,47,1004.67
2014,11,21,07,48,1004.71
2014,11,21,07,49,1004.61
2014,11,21,07,50,1004.54
2014,11,21,07,51,1004.54
2014,11,21,07,52,1004.64
2014,11,21,07,53,1004.71
2014,11,21,07,54,1004.64
2014,11,21,07,55,1004.61
2014,11,21,07,56,1004.64
2014,11,21,07,57,1004.57
2014,11,21,07,58,1004.50
2014,11,21,07,59,1004.57
2014,11,21,08,00,1004.64
2014,11,21,08,01,1004.48
2014,11,21,08,02,1004.44
2014,11,21,08,03,1004.47
2014,11,21,08,04,1004.47
2014,11,21,08,05,1004.50
2014,11,21,08,06,1004.50
2014,11,21,08,07,1004.64
2014,11,21,08,08,1004.50
2014,11,21,08,09,1004.44
2014,11,21,08,10,1004.44
2014,11,21,08,11,1004.47
2014,11,21,08,12,1004.47
2014,11,21,08,13,1004.40
2014,11,21,08,14,1004.37
2014,11,21,08,15,1004.40
2014,11,21,08,16,1004.30
2014,11,21,08,17,1004.27
2014,11,21,08,18,1004.23
2014,11,21,08,19,1004.13
2014,11,21,08,20,1004.13
2014,11,21,08,21,1004.06
2014,11,21,08,22,1004.06
2014,11,21,08,23,1004.03
2014,11,21,08,24,1004.10
2014,11,21,08,25,1004.00
2014,11,21,08,26,1004.03
2014,11,21,08,27,1004.06
2014,11,21,08,28,1003.90
2014,11,21,08,29,1003.96
2014,11,21,08,30,1003.90
2014,11,21,08,31,1003.90
2014,11,21,08,32,1003.90
2014,11,21,08,33,1003.86
2014,11,21,08,34,1004.02
2014,11,21,08,35,1004.10
2014,11,21,08,36,1004.00
2014,11,21,08,37,1004.03
2014,11,21,08,38,1004.03
2014,11,21,08,39,1003.86
2014,11,21,08,40,1003.76
2014,11,21,08,41,1003.76
2014,11,21,08,42,1003.79
2014,11,21,08,43,1003.76
2014,11,21,08,44,1003.69
2014,11,21,08,45,1003.69
2014,11,21,08,46,1003.62
2014,11,21,08,47,1003.78
2014,11,21,08,48,1003.52
2014,11,21,08,49,1003.49
2014,11,21,08,50,1003.52
2014,11,21,08,51,1003.62
2014,11,21,08,52,1003.62
2014,11,21,08,53,1003.76
2014,11,21,08,54,1003.63
2014,11,21,08,55,1003.62
2014,11,21,08,56,1003.66
2014,11,21,08,57,1003.59
2014,11,21,08,58,1003.62
2014,11,21,08,59,1003.69
2014,11,21,09,00,1003.62
2014,11,21,09,01,1003.56
2014,11,21,09,02,1003.43
2014,11,21,09,03,1003.42
2014,11,21,09,04,1003.39
2014,11,21,09,05,1003.39
2014,11,21,09,06,1003.32
2014,11,21,09,07,1003.32
2014,11,21,09,08,1003.35
2014,11,21,09,09,1003.18
2014,11,21,09,10,1003.25
2014,11,21,09,11,1003.22
2014,11,21,09,12,1003.25
2014,11,21,09,13,1003.29
2014,11,21,09,14,1003.22
2014,11,21,09,15,1003.25
2014,11,21,09,16,1003.22
2014,11,21,09,17,1003.09
2014,11,21,09,18,1003.05
2014,11,21,09,19,1003.01
2014,11,21,09,20,1003.01
2014,11,21,09,21,1003.08
2014,11,21,09,22,1003.05
2014,11,21,09,23,1003.12
2014,11,21,09,24,1003.18
2014,11,21,09,25,1003.18
2014,11,21,09,26,1003.01
2014,11,21,09,27,1003.05
2014,11,21,09,28,1002.91
2014,11,21,09,29,1002.95
2014,11,21,09,30,1002.78
2014,11,21,09,31,1002.81
2014,11,21,09,32,1002.74
2014,11,21,09,33,1002.78
2014,11,21,09,34,1002.81
2014,11,21,09,35,1002.71
2014,11,21,09,36,1002.74
2014,11,21,09,37,1002.61
2014,11,21,09,38,1002.61
2014,11,21,09,39,1002.54
2014,11,21,09,40,1002.54
2014,11,21,09,41,1002.44
2014,11,21,09,42,1002.44
2014,11,21,09,43,1002.54
2014,11,21,09,44,1002.47
2014,11,21,09,45,1002.44
2014,11,21,09,46,1002.37
2014,11,21,09,47,1002.44
2014,11,21,09,48,1002.47
2014,11,21,09,49,1002.51
2014,11,21,09,50,1002.54
2014,11,21,09,51,1002.35
2014,11,21,09,52,1002.37
2014,11,21,09,53,1002.30
2014,11,21,09,54,1002.24
2014,11,21,09,55,1002.24
2014,11,21,09,56,1002.30
2014,11,21,09,57,1002.30
2014,11,21,09,58,1002.40
2014,11,21,09,59,1002.17
2014,11,21,10,00,1002.24
2014,11,21,10,01,1002.24
2014,11,21,10,02,1002.27
2014,11,21,10,03,1002.24
2014,11,21,10,04,1002.17
2014,11,21,10,05,1002.10
2014,11,21,10,06,1002.03
2014,11,21,10,07,1002.00
2014,11,21,10,08,1002.02
2014,11,21,10,09,1001.90
2014,11,21,10,10,1001.83
2014,11,21,10,11,1001.83
2014,11,21,10,12,1001.76
2014,11,21,10,13,1001.76
2014,11,21,10,14,1001.86
2014,11,21,10,15,1001.73
2014,11,21,10,16,1001.73
2014,11,21,10,17,1001.76
2014,11,21,10,18,1001.73
2014,11,21,10,19,1001.76
2014,11,21,10,20,1001.76
2014,11,21,10,21,1001.73
2014,11,21,10,22,1001.73
2014,11,21,10,23,1001.76
2014,11,21,10,24,1001.73
2014,11,21,10,25,1001.59
2014,11,21,10,26,1001.66
2014,11,21,10,27,1001.59
2014,11,21,10,28,1001.49
2014,11,21,10,29,1001.46
2014,11,21,10,30,1001.46
2014,11,21,10,31,1001.46
2014,11,21,10,32,1001.46
2014,11,21,10,33,1001.49
2014,11,21,10,34,1001.36
2014,11,21,10,35,1001.39
2014,11,21,10,36,1001.42
2014,11,21,10,37,1001.42
2014,11,21,10,38,1001.39
2014,11,21,10,39,1001.39
2014,11,21,10,40,1001.36
2014,11,21,10,41,1001.32
2014,11,21,10,42,1001.32
2014,11,21,10,43,1001.41
2014,11,21,10,44,1001.29
2014,11,21,10,45,1001.25
2014,11,21,10,46,1001.36
2014,11,21,10,47,1001.22
2014,11,21,10,48,1001.15
2014,11,21,10,49,1001.02
2014,11,21,10,50,1000.92
2014,11,21,10,51,1000.98
2014,11,21,10,52,1000.88
2014,11,21,10,53,1000.88
2014,11,21,10,54,1000.92
2014,11,21,10,55,1000.92
2014,11,21,10,56,1000.88
2014,11,21,10,57,1000.75
2014,11,21,10,58,1000.71
2014,11,21,10,59,1000.71
2014,11,21,11,00,1000.64
2014,11,21,11,01,1000.58
2014,11,21,11,02,1000.58
2014,11,21,11,03,1000.54
2014,11,21,11,04,1000.51
2014,11,21,11,05,1000.48
2014,11,21,11,06,1000.44
2014,11,21,11,07,1000.48
2014,11,21,11,08,1000.37
2014,11,21,11,09,1000.50
2014,11,21,11,10,1000.35
2014,11,21,11,11,1000.51
2014,11,21,11,12,1000.41
2014,11,21,11,13,1000.48
2014,11,21,11,14,1000.34
2014,11,21,11,15,1000.27
2014,11,21,11,16,1000.34
2014,11,21,11,17,1000.31
2014,11,21,11,18,1000.31
2014,11,21,11,19,1000.41
2014,11,21,11,20,1000.25
2014,11,21,11,21,1000.31
2014,11,21,11,22,1000.24
2014,11,21,11,23,1000.44
2014,11,21,11,24,1000.27
2014,11,21,11,25,1000.20
2014,11,21,11,26,1000.27
2014,11,21,11,27,1000.17
2014,11,21,11,28,1000.10
2014,11,21,11,29,1000.27
2014,11,21,11,30,1000.17
2014,11,21,11,31,1000.10
2014,11,21,11,32,999.97
2014,11,21,11,33,1000.07
2014,11,21,11,34,1000.00
2014,11,21,11,35,1000.10
2014,11,21,11,36,999.93
2014,11,21,11,37,999.93
2014,11,21,11,38,999.90
2014,11,21,11,39,1000.00
2014,11,21,11,40,999.88
2014,11,21,11,41,999.80
2014,11,21,11,42,999.76
2014,11,21,11,43,999.70
2014,11,21,11,44,999.70
2014,11,21,11,45,999.59
2014,11,21,11,46,999.56
2014,11,21,11,47,999.49
2014,11,21,11,48,999.43
2014,11,21,11,49,999.43
2014,11,21,11,50,999.39
2014,11,21,11,51,999.26
2014,11,21,11,52,999.26
2014,11,21,11,53,999.22
2014,11,21,11,54,999.19
2014,11,21,11,55,999.29
2014,11,21,11,56,999.09
2014,11,21,11,57,999.05
2014,11,21,11,58,999.05
2014,11,21,11,59,999.05
2014,11,21,12,00,998.99
2014,11,21,12,01,999.09
2014,11,21,12,02,998.92
2014,11,21,12,03,998.92
2014,11,21,12,04,998.99
2014,11,21,12,05,998.92
2014,11,21,12,06,998.95
2014,11,21,12,07,998.78
2014,11,21,12,08,998.75
2014,11,21,12,09,998.85
2014,11,21,12,10,998.75
2014,11,21,12,11,998.82
2014,11,21,12,12,998.65
2014,11,21,12,13,998.65
2014,11,21,12,14,998.65
2014,11,21,12,15,998.54
2014,11,21,12,16,998.61
2014,11,21,12,17,998.44
2014,11,21,12,18,998.38
2014,11,21,12,19,998.41
2014,11,21,12,20,998.32
2014,11,21,12,21,998.27
2014,11,21,12,22,998.24
2014,11,21,12,23,998.38
2014,11,21,12,24,998.24
2014,11,21,12,25,998.24
2014,11,21,12,26,998.24
2014,11,21,12,27,998.07
2014,11,21,12,28,998.07
2014,11,21,12,29,997.97
2014,11,21,12,30,997.94
2014,11,21,12,31,997.97
2014,11,21,12,32,997.97
2014,11,21,12,33,997.83
2014,11,21,12,34,997.80
2014,11,21,12,35,997.77
2014,11,21,12,36,997.80
2014,11,21,12,37,997.77
2014,11,21,12,38,997.80
2014,11,21,12,39,997.83
2014,11,21,12,40,997.77
2014,11,21,12,41,997.63
2014,11,21,12,42,997.63
2014,11,21,12,43,997.56
2014,11,21,12,44,997.53
2014,11,21,12,45,997.50
2014,11,21,12,46,997.46
2014,11,21,12,47,997.50
2014,11,21,12,48,997.46
2014,11,21,12,49,997.36
2014,11,21,12,50,997.33
2014,11,21,12,51,997.29
2014,11,21,12,52,997.29
2014,11,21,12,53,997.26
2014,11,21,12,54,997.26
2014,11,21,12,55,997.09
2014,11,21,12,56,997.12
2014,11,21,12,57,997.09
2014,11,21,12,58,996.99
2014,11,21,12,59,997.09
2014,11,21,13,00,996.99
2014,11,21,13,01,997.12
2014,11,21,13,02,997.22
2014,11,21,13,03,996.99
2014,11,21,13,04,996.95
2014,11,21,13,05,996.85
2014,11,21,13,06,996.78
2014,11,21,13,07,996.75
2014,11,21,13,08,996.68
2014,11,21,13,09,996.82
2014,11,21,13,10,996.85
2014,11,21,13,11,996.61
2014,11,21,13,12,996.58
2014,11,21,13,13,996.58
2014,11,21,13,14,996.41
2014,11,21,13,15,996.41
2014,11,21,13,16,996.41
2014,11,21,13,17,996.41
2014,11,21,13,18,996.31
2014,11,21,13,19,996.28
2014,11,21,13,20,996.21
2014,11,21,13,21,996.17
2014,11,21,13,22,996.28
2014,11,21,13,23,996.28
2014,11,21,13,24,996.38
2014,11,21,13,25,996.31
2014,11,21,13,26,996.31
2014,11,21,13,27,996.28
2014,11,21,13,28,996.15
2014,11,21,13,29,996.04
2014,11,21,13,30,996.07
2014,11,21,13,31,996.01
2014,11,21,13,32,995.84
2014,11,21,13,33,995.73
2014,11,21,13,34,995.73
2014,11,21,13,35,995.67
2014,11,21,13,36,995.56
2014,11,21,13,37,995.43
2014,11,21,13,38,995.50
2014,11,21,13,39,995.27
2014,11,21,13,40,995.29
2014,11,21,13,41,995.29
2014,11,21,13,42,995.09
2014,11,21,13,43,995.06
2014,11,21,13,44,994.96
2014,11,21,13,45,994.96
2014,11,21,13,46,994.79
2014,11,21,13,47,994.68
2014,11,21,13,48,994.75
2014,11,21,13,49,994.75
2014,11,21,13,50,994.55
2014,11,21,13,51,994.55
2014,11,21,13,52,994.55
2014,11,21,13,53,994.41
2014,11,21,13,54,994.38
2014,11,21,13,55,994.41
2014,11,21,13,56,994.21
2014,11,21,13,57,994.31
2014,11,21,13,58,994.28
2014,11,21,13,59,994.18
2014,11,21,14,00,994.14
2014,11,21,14,01,994.02
2014,11,21,14,02,994.21
2014,11,21,14,03,993.94
2014,11,21,14,04,993.94
2014,11,21,14,05,993.94
2014,11,21,14,06,993.84
2014,11,21,14,07,993.84
2014,11,21,14,08,993.70
2014,11,21,14,09,993.67
2014,11,21,14,10,993.60
2014,11,21,14,11,993.67
2014,11,21,14,12,993.67
2014,11,21,14,13,993.53
2014,11,21,14,14,993.67
2014,11,21,14,15,993.60
2014,11,21,14,16,993.50
2014,11,21,14,17,993.50
2014,11,21,14,18,993.57
2014,11,21,14,19,993.40
2014,11,21,14,20,993.23
2014,11,21,14,21,993.40
2014,11,21,14,22,993.47
2014,11,21,14,23,993.33
2014,11,21,14,24,993.33
2014,11,21,14,25,993.47
2014,11,21,14,26,993.08
2014,11,21,14,27,993.13
2014,11,21,14,28,993.29
2014,11,21,14,29,993.14
2014,11,21,14,30,993.13
2014,11,21,14,31,993.09
2014,11,21,14,32,992.99
2014,11,21,14,33,992.99
2014,11,21,14,34,992.96
2014,11,21,14,35,993.03
2014,11,21,14,36,992.99
2014,11,21,14,37,992.92
2014,11,21,14,38,992.99
2014,11,21,14,39,993.03
2014,11,21,14,40,992.92
2014,11,21,14,41,992.89
2014,11,21,14,42,992.86
2014,11,21,14,43,992.79
2014,11,21,14,44,992.96
2014,11,21,14,45,992.79
2014,11,21,14,46,992.69
2014,11,21,14,47,992.58
2014,11,21,14,48,992.58
2014,11,21,14,49,992.52
2014,11,21,14,50,992.52
2014,11,21,14,51,992.48
2014,11,21,14,52,992.38
2014,11,21,14,53,992.38
2014,11,21,14,54,992.52
2014,11,21,14,55,992.58
2014,11,21,14,56,992.45
2014,11,21,14,57,992.35
2014,11,21,14,58,992.42
2014,11,21,14,59,992.28
2014,11,21,15,00,992.48
2014,11,21,15,01,992.25
2014,11,21,15,02,992.14
2014,11,21,15,03,992.21
2014,11,21,15,04,992.14
2014,11,21,15,05,992.14
2014,11,21,15,06,992.14
2014,11,21,15,07,992.11
2014,11,21,15,08,992.18
2014,11,21,15,09,992.09
2014,11,21,15,10,992.14
2014,11,21,15,11,991.98
2014,11,21,15,12,991.88
2014,11,21,15,13,992.21
2014,11,21,15,14,991.99
2014,11,21,15,15,991.91
2014,11,21,15,16,991.77
2014,11,21,15,17,991.77
2014,11,21,15,18,991.93
2014,11,21,15,19,991.94
2014,11,21,15,20,991.84
2014,11,21,15,21,991.94
2014,11,21,15,22,991.77
2014,11,21,15,23,991.81
2014,11,21,15,24,991.87
2014,11,21,15,25,991.91
2014,11,21,15,26,991.77
2014,11,21,15,27,991.54
2014,11,21,15,28,991.67
2014,11,21,15,29,991.54
2014,11,21,15,30,991.40
2014,11,21,15,31,991.52
2014,11,21,15,32,991.47
2014,11,21,15,33,991.57
2014,11,21,15,34,991.50
2014,11,21,15,35,991.43
2014,11,21,15,36,991.30
2014,11,21,15,37,991.26
2014,11,21,15,38,991.43
2014,11,21,15,39,991.40
2014,11,21,15,40,991.33
2014,11,21,15,41,991.40
2014,11,21,15,42,991.30
2014,11,21,15,43,991.33
2014,11,21,15,44,991.26
2014,11,21,15,45,991.20
2014,11,21,15,46,991.13
2014,11,21,15,47,991.16
2014,11,21,15,48,991.13
2014,11,21,15,49,991.00
2014,11,21,15,50,991.20
2014,11,21,15,51,991.09
2014,11,21,15,52,991.06
2014,11,21,15,53,990.96
2014,11,21,15,54,990.93
2014,11,21,15,55,990.80
2014,11,21,15,56,990.76
2014,11,21,15,57,990.95
2014,11,21,15,58,990.99
2014,11,21,15,59,990.86
2014,11,21,16,00,990.89
2014,11,21,16,01,990.89
2014,11,21,16,02,991.02
2014,11,21,16,03,991.03
2014,11,21,16,04,991.16
2014,11,21,16,05,991.20
2014,11,21,16,06,991.20
2014,11,21,16,07,991.30